OBJECT T, 43775

Orbit data source: Space-Track

You're viewing an uncataloged RSO

Recently launched and/or uncataloged RSOs may have evolving metadata. Metadata may include the following, but is not limited to: Owner, Manufacturer, Bus, Motor, and Mission.

OBJECT T, 43775 is a satellite in SSO that was launched on Mon, 03 Dec 2018 UTC via an FALCON 9 launch vehicle from the Air Force Western Test Range (AFWTR). Unknown objects in Earth's orbit typically refer to objects detected orbiting the Earth but have not yet been identified or cataloged. These objects could be anything from previously untracked satellites, spent rocket stages, debris from satellite collisions, or even natural meteoroids temporarily captured by Earth's gravity.

Loading next visibility...
Identifier
43775, 2018-099T
Orbit
SSO
Country
Flag of TBDTBD
Related business
None
Manufacturer
Unknown
Mission
Non-operational Commercial Technology
Bus & Motor
Unknown
Mass
Unknown
Launch date (UTC)
2018-12-03 (8 years ago)
Launch vehicle
FALCON 9
Launch site
Air Force Western Test Range (AFWTR)
Object type
Unknown
Shape & HBR
Box, 0.1 m
Radar Cross Section
0.015 m², Medium (>0.1 m² and < 1m²)

Expand to show TLE details & history
Last TLE update: 18 hours ago

TLE from 18 hours ago
0 OBJECT T
1 43775U 18099T   26235.59816048  .00003143  00000-0  19453-3 0  9998
2 43775  97.4160 277.7596 0007293  94.4567 265.7496 15.10488039422493
Epoch: 2026-08-23T14:21Z
TLE epoch observation values (Epoch: 2026-08-23T14:21:21.065Z)
Latitude
-0.00005°
Longitude
90.52992°
Altitude
538.165 km
Speed
7.593 km/s
True Right ascension
18h 31m 02s
True Declination
0° 00' 00"
Sunlit
Object was in full shadow at epoch
Visualization orbit readout
Latitude
Unknown
Longitude
Unknown
Altitude
Unknown
Speed
Unknown
Apparent Right ascension
Unknown
Apparent Declination
Unknown
Sunlit
N/A
Visualization observer readout
Local Sidereal Time
23:03:50
Azimuth
Unknown
Elevation
Unknown
Doppler factor
Unknown
Orbital elements
Apogee altitude
536.729 km
Perigee altitude
526.65 km
Semi-major axis
6,909.827 km
Eccentricity
0.00073
Inclination
97.416°
RAAN
277.7596°
Arg. of periapsis
94.4567°
True anomaly
265.66626°
Mean anomaly
265.7496°
Eccentric anomaly
265.70793°
Mean motion
3.7787 °/min
Orbital period
95.27 mins
BSTAR
0.00019453
Loading maneuver chart data...
Computing Atmospheric mass density...
Loading historical data...
Loading historical data...
Loading historical data...
Loading historical data...
Loading historical data...
Loading historical data...
Loading historical data...

Documentation

Showing up to 5 results
|